Pratica di Mare, Italy

3:52 AM CET on February 26, 2017 (GMT +0100)
Pratica Di Mare Mil

Weather History for LIRE - October, 2012

Change the Weather History Date:

Sunday, October 7, 2012

  Actual Average Record
Temperature  
Mean Temperature 68 °F -  
Max Temperature 75 °F 69 °F 78 °F (2001)
Min Temperature 60 °F 52 °F 53 °F (2006)
Cooling Degree Days 2    
Growing Degree Days 18 (Base 50)    
Moisture  
Dew Point 63 °F    
Average Humidity 82    
Maximum Humidity 88    
Minimum Humidity 72    
Precipitation  
Precipitation 0.00 in 0.16 in - ()
Sea Level Pressure  
Sea Level Pressure 30.05 in    
Wind  
Wind Speed 6 mph ()    
Max Wind Speed 14 mph    
Max Gust Speed -    
Visibility 7.3 miles    
Events      
Averages and records for this station are not official NWS values.
T = Trace of Precipitation, MM = Missing Value Source: Averaged Metar Reports

Daily Weather History Graph

Daily Weather History Graph

Search for Another Location

Airport or City:

Trip Planner

Search our weather history database for the weather conditions in past years. The results will help you decide how hot, cold, wet, or windy it might be!

Date:

Astronomy

Oct. 07, 2012 Rise Set
Actual Time 7:13 AM CEST 6:41 PM CEST
Civil Twilight 6:46 AM CEST 7:09 PM CEST
Nautical Twilight 6:13 AM CEST 7:41 PM CEST
Astronomical Twilight 5:41 AM CEST 8:13 PM CEST
Moon 11:33 PM CEST (10/7) 1:42 PM CEST (10/7)
Length of Visible Light 12h 23m
Length of Day
11h 27m
Waning Gibbous, 58% of the Moon is Illuminated
Oct 7
Waning Gibbous
Oct 8
Last Quarter
Oct 15
New
Oct 22
First Quarter
Oct 29
Full

Hourly Weather History & Observations

Time (CEST) Temp. Dew Point Humidity Pressure Visibility Wind Dir Wind Speed Gust Speed Precip Events Conditions
12:55 AM 62.6 °F 59.0 °F 88% 30.15 in - ENE 5.8 mph - N/A   Clear
1:55 AM 62.6 °F 59.0 °F 88% 30.12 in - NNE 4.6 mph - N/A   Clear
2:00 AM 63 °F 59 °F 83% 30.13 in 9 mi NNE 4.6 mph - -  
2:55 AM 62.6 °F 59.0 °F 88% 30.12 in - NE 4.6 mph - N/A   Clear
3:55 AM 62.6 °F 59.0 °F 88% 30.12 in - NE 4.6 mph - N/A   Clear
4:55 AM 62.6 °F 59.0 °F 88% 30.09 in - ENE 4.6 mph - N/A   Clear
5:00 AM 62 °F 59 °F 85% 30.12 in 9 mi ENE 4.6 mph - -  
5:55 AM 62.6 °F 59.0 °F 88% 30.09 in - NNE 5.8 mph - N/A   Clear
6:55 AM 60.8 °F 57.2 °F 88% 30.09 in 6.2 mi ENE 6.9 mph - N/A   Scattered Clouds
7:55 AM 64.4 °F 60.8 °F 88% 30.06 in 6.2 mi ENE 5.8 mph - N/A   Scattered Clouds
8:00 AM 64 °F 61 °F 86% 30.08 in 12 mi ENE 5.8 mph - -   Partly Cloudy
8:55 AM 66.2 °F 62.6 °F 88% 30.06 in 6.2 mi East 6.9 mph - N/A   Scattered Clouds
9:55 AM 69.8 °F 62.6 °F 78% 30.06 in 6.2 mi ESE 11.5 mph - N/A   Scattered Clouds
10:55 AM 71.6 °F 64.4 °F 78% 30.06 in 6.2 mi ESE 8.1 mph - N/A   Scattered Clouds
11:00 AM 71 °F 64 °F 73% 30.08 in 12 mi ESE 8.1 mph - -   Mostly Cloudy
11:55 AM 71.6 °F 64.4 °F 78% 30.04 in 6.2 mi SE 13.8 mph - N/A   Scattered Clouds
12:55 PM 71.6 °F 64.4 °F 78% 30.04 in 6.2 mi ESE 8.1 mph - N/A   Scattered Clouds
1:55 PM 73.4 °F 66.2 °F 78% 30.04 in 6.2 mi SE 8.1 mph - N/A   Mostly Cloudy
2:00 PM 73 °F 66 °F 73% 30.05 in 12 mi SE 8.1 mph - -   Mostly Cloudy
2:55 PM 73.4 °F 64.4 °F 73% 30.04 in 6.2 mi SE 11.5 mph - N/A   Scattered Clouds
3:55 PM 75.2 °F 66.2 °F 73% 30.01 in 6.2 mi South 11.5 mph - N/A   Scattered Clouds
4:55 PM 73.4 °F 66.2 °F 78% 29.98 in 6.2 mi SSE 12.7 mph - N/A   Mostly Cloudy
5:00 PM 73 °F 66 °F 72% 29.99 in 12 mi SSE 12.7 mph - -   Overcast
5:55 PM 73.4 °F 66.2 °F 78% 29.98 in 6.2 mi SE 11.5 mph - N/A   Scattered Clouds
6:55 PM 71.6 °F 68.0 °F 88% 29.98 in 6.2 mi SE 6.9 mph - N/A   Mostly Cloudy
7:55 PM 71.6 °F 66.2 °F 83% 29.98 in 6.2 mi South 2.3 mph - N/A   Mostly Cloudy
8:55 PM 71.6 °F 66.2 °F 83% 29.98 in 6.2 mi East 4.6 mph - N/A   Scattered Clouds
9:55 PM 69.8 °F 66.2 °F 88% 29.98 in 6.2 mi East 4.6 mph - N/A   Scattered Clouds
10:55 PM 69.8 °F 66.2 °F 88% 29.98 in 6.2 mi ESE 3.5 mph - N/A   Scattered Clouds
11:00 PM 71 °F 67 °F 82% 29.99 in 6 mi ESE 3.5 mph - -   Partly Cloudy
11:55 PM 69.8 °F 66.2 °F 88% 29.98 in 6.2 mi East 3.5 mph - N/A   Partly Cloudy